Todos
Julia Creek Airport (Julia Creek, Queensland) JCK Condições meteorológicas
|
Julia Creek, Queensland (JCK / YJLC)
Céu Limpo
Vento fraco |
|
29 °C |
JCK Previsão da área de terminais
| Date | Time (AEST) | Flight Rules | Wind Dir. | Speed | Type | Height AGL (ft) | Visibility | Remarks | ||||||
|---|---|---|---|---|---|---|---|---|---|---|---|---|---|---|
Histórico recente de METAR JCK
| Date | Time (AEST) | Flight Rules | Wind Dir. | Speed | Type | Height AGL (ft) | Visibility | Temp (°C) | Temp (°F) | Dew Point (°C) | Dew Point (°F) | Rel. Humid. | Pressure | Density Altitude | Remarks |
|---|---|---|---|---|---|---|---|---|---|---|---|---|---|---|---|
| 03-Mai | 10:00 | VFR | Calm | 10000 meters | 29° | 84° | 19° | 66° | 55% | 1016 mb | 2.002 ft | ||||
| 03-Mai | 09:00 | VFR | Calm | 10000 meters | 25° | 77° | 18° | 64° | 65% | 1015 mb | 1.551 ft | ||||
| 03-Mai | 08:00 | VFR | Calm | 10000 meters | 21° | 69° | 18° | 64° | 83% | 1015 mb | 1.071 ft | ||||
| 03-Mai | 07:00 | VFR | Calm | 10000 meters | 17° | 62° | 16° | 60° | 94% | 1014 mb | 621 ft | ||||
| 03-Mai | 06:00 | VFR | Calm | 10000 meters | 17° | 62° | 15° | 59° | 88% | 1013 mb | 650 ft | ||||
| 03-Mai | 05:00 | VFR | Calm | 10000 meters | 17° | 62° | 16° | 60° | 94% | 1012 mb | 680 ft | ||||
| 03-Mai | 04:00 | VFR | Calm | 10000 meters | 18° | 64° | 16° | 60° | 88% | 1012 mb | 800 ft | ||||
| 03-Mai | 03:00 | VFR | Calm | 10000 meters | 18° | 64° | 16° | 60° | 88% | 1012 mb | 800 ft | ||||
| 03-Mai | 02:00 | VFR | Calm | 10000 meters | 19° | 66° | 16° | 60° | 83% | 1013 mb | 890 ft | ||||
| 03-Mai | 01:00 | VFR | Calm | Few |
11.000 |
10000 meters | 20° | 68° | 16° | 60° | 78% | 1013 mb | 1.010 ft | ||
| 03-Mai | 00:00 | VFR | Calm | 10000 meters | 20° | 68° | 16° | 60° | 78% | 1014 mb | 981 ft | ||||
| 02-Mai | 23:00 | VFR | Calm | Few |
11.000 |
10000 meters | 21° | 69° | 16° | 60° | 73% | 1014 mb | 1.101 ft | ||
| 02-Mai | 22:00 | VFR | Calm | 10000 meters | 22° | 71° | 16° | 60° | 69% | 1014 mb | 1.221 ft | ||||
| 02-Mai | 21:00 | VFR | Calm | 10000 meters | 22° | 71° | 16° | 60° | 69% | 1014 mb | 1.221 ft | ||||
| 02-Mai | 20:00 | VFR | Calm | 10000 meters | 24° | 75° | 16° | 60° | 61% | 1013 mb | 1.490 ft | ||||
| 02-Mai | 19:00 | VFR | Calm | 10000 meters | 25° | 77° | 16° | 60° | 57% | 1012 mb | 1.640 ft | ||||
| 02-Mai | 18:00 | VFR | Calm | 10000 meters | 29° | 84° | 17° | 62° | 48% | 1012 mb | 2.120 ft | ||||
| 02-Mai | 17:00 | VFR | Calm | 10000 meters | 33° | 91° | 16° | 60° | 36% | 1011 mb | 2.629 ft | ||||
| 02-Mai | 16:00 | VFR | Calm | 10000 meters | 34° | 93° | 14° | 57° | 30% | 1011 mb | 2.749 ft | ||||
| 02-Mai | 15:00 | VFR | Calm | 10000 meters | 34° | 93° | 17° | 62° | 36% | 1011 mb | 2.749 ft | ||||
| 02-Mai | 14:00 | VFR | Calm | 10000 meters | 34° | 93° | 16° | 60° | 34% | 1012 mb | 2.720 ft | ||||
| 02-Mai | 13:00 | VFR | Calm | 10000 meters | 32° | 89° | 18° | 64° | 43% | 1013 mb | 2.450 ft | ||||
| 02-Mai | 12:00 | VFR | Calm | 10000 meters | 32° | 89° | 18° | 64° | 43% | 1014 mb | 2.421 ft | ||||
| 02-Mai | 11:00 | VFR | Calm | 10000 meters | 30° | 86° | 19° | 66° | 52% | 1015 mb | 2.151 ft |
Entrar
| Seu navegador não suporta. atualize seu navegador |
